Home > Weather > Santa Marta > Past weeks

Flag for Colombia Weather for the Past 2 Weeks in Santa Marta, Colombia

Now
82 °F

Scattered clouds.


Feels Like: 89 °F
Forecast: 80 / 88 °F
Wind: 5 mph from Northwest

Location: Santa Marta / Simon Bolivar

Current Time: Feb 8, 2016 at 9:50:30 AM

Latest Report: Feb 8, 2016 at 9:00 AM


Visibility: 4 mi

Pressure: 29.86 "Hg

Humidity: 79%

Dew point: 75 °F

Location of Santa MartaLocation

Historic Weather in Santa Marta — Graph

°F

Santa Marta Temperature Yesterday

Maximum temperature yesterday: 88 °F (at 2:00 PM)
Minimum temperature yesterday: 75 °F (at 6:00 AM)
Average temperature yesterday: 83 °F

High & Low Weather Summary for the Past Weeks

 TemperatureHumidityPressure
High95 °F (Jan 27, 4:00 PM)89% (Jan 28, 11:00 PM)29.92 "Hg (Jan 28, 11:00 PM)
Low75 °F (Jan 25, 7:00 AM)44% (Jan 26, 3:00 PM)29.70 "Hg (Feb 2, 4:00 PM)
Average85 °F66%29.80 "Hg
* Reported Jan 24 8:00 AM — Feb 8 8:00 AM, Santa Marta, Weather by CustomWeather, © 2016

Note: Actual official high and low records may vary slightly from our data, if they occured in-between our weather recording intervals... More about our weather records

Advertising

Santa Marta Weather History for the Previous 24 Hours

 ConditionsComfort  
Time TempWeatherWind HumidityBarometerVisibility
8:00 AM
Mon, Feb 8
81 °FScattered clouds.5 mph84%29.83 "Hg4 mi
7:00 AM77 °FPartly sunny.5 mph89%29.81 "Hg5 mi
6:00 AM77 °FPassing clouds.No wind83%29.79 "Hg6 mi
11:00 PM
Sun, Feb 7
82 °FPassing clouds.7 mph79%29.77 "Hg4 mi
10:00 PM82 °FPassing clouds.No wind70%29.77 "Hg4 mi
9:00 PM84 °FPassing clouds.7 mph70%29.77 "Hg4 mi
8:00 PM82 °FPassing clouds.21 mph74%29.74 "Hg4 mi
7:00 PM82 °FPassing clouds.14 mph74%29.74 "Hg4 mi
6:00 PM86 °FPassing clouds.21 mph70%29.74 "Hg4 mi
5:00 PM88 °FPassing clouds.18 mph66%29.74 "Hg4 mi
4:00 PM84 °FPassing clouds.14 mph79%29.74 "Hg4 mi
3:00 PM88 °FPassing clouds.12 mph70%29.74 "Hg4 mi
2:00 PM88 °FPassing clouds.5 mph66%29.77 "Hg4 mi
1:00 PM84 °FPassing clouds.7 mph79%29.80 "Hg4 mi
12:00 PM86 °FPassing clouds.5 mph75%29.82 "Hg6 mi
11:00 AM86 °FPassing clouds.7 mph75%29.84 "Hg6 mi
10:00 AM82 °FClear.9 mph79%29.85 "Hg6 mi
9:00 AM84 °FClear.5 mph74%29.84 "Hg6 mi
Weather by CustomWeather, © 2016

See weather overviewHow to use our weather pages